Location: Newark
(52.2090°N, 4.1550°W)
Time: 08:49:24
(UTC+00:00)

Transit 4A - Pass Details

Date: 26 October 2019
Orbit: 868 x 976 km, 66.8° (Epoch: 17 November)

Event Time Altitude Azimuth Distance (km) Brightness Sun altitude
Exits shadow 03:18:43 38° 126° (SE) 1,426 8.9 -33.9°
Maximum altitude 03:19:13 38° 115° (ESE) 1,410 9.0 -33.8°
Drops below altitude 10° 03:24:52 10° 49° (NE) 2,657 11.1 -33.0°
Sets 03:27:32 0° 42° (NE) 3,588 11.9 -32.6°
